When you browse on this site, cookies collect data to enhance your experience and personalize the content and advertising you see.
Visit our Privacy Policy to learn more. By continuing to use the site, you agree to this use of cookies and data.
  • In Hungary
  • List of Countries
  • For 7 days
  • Water Temperature
  • Satellite Maps
  • Weather Map
  • News
  • Weather Widgets
  • user-avatar
    Login

    Hourly Weather Chittur

    Today, 19 January, Saturday

    Time Temperature Precipitation Wind Pressure Humidity
    00:00 +23°C° 0 mm 2 mps 749 mmHg 61%
    01:00 +23°C° 0 mm 2 mps 749 mmHg 65%
    02:00 +21°C° 0 mm 2 mps 749 mmHg 69%
    03:00 +21°C° 0 mm 2 mps 749 mmHg 73%
    04:00 +21°C° 0 mm 3 mps 749 mmHg 77%
    05:00 +20°C° 0 mm 2 mps 749 mmHg 83%
    06:00 +21°C° 0 mm 2 mps 749 mmHg 79%
    07:00 +24°C° 0 mm 3 mps 749 mmHg 74%
    08:00 +25°C° 0 mm 3 mps 750 mmHg 70%
    09:00 +27°C° 0 mm 4 mps 750 mmHg 61%
    10:00 +29°C° 0 mm 4 mps 749 mmHg 51%
    11:00 +32°C° 0 mm 4 mps 749 mmHg 42%
    12:00 +33°C° 0 mm 4 mps 749 mmHg 38%
    13:00 +34°C° 0 mm 4 mps 748 mmHg 34%
    14:00 +35°C° 0 mm 4 mps 747 mmHg 30%
    15:00 +34°C° 0 mm 4 mps 747 mmHg 32%
    16:00 +33°C° 0 mm 4 mps 747 mmHg 34%
    17:00 +33°C° 0 mm 3 mps 747 mmHg 36%
    18:00 +29°C° 0 mm 3 mps 748 mmHg 41%
    19:00 +27°C° 0 mm 2 mps 748 mmHg 47%
    20:00 +24°C° 0 mm 1 mps 749 mmHg 52%
    21:00 +24°C° 0 mm 1 mps 749 mmHg 55%
    22:00 +23°C° 0 mm 1 mps 750 mmHg 57%
    23:00 +23°C° 0 mm 2 mps 750 mmHg 60%

    Tomorrow, 20 January, Sunday

    Time Temperature Precipitation Wind Pressure Humidity
    00:00 +21°C° 0 mm 2 mps 750 mmHg 65%
    01:00 +21°C° 0 mm 2 mps 750 mmHg 71%
    02:00 +21°C° 0 mm 2 mps 750 mmHg 76%
    03:00 +20°C° 0 mm 2 mps 750 mmHg 79%
    04:00 +20°C° 0 mm 2 mps 750 mmHg 81%
    05:00 +20°C° 0 mm 2 mps 750 mmHg 84%
    06:00 +21°C° 0 mm 3 mps 751 mmHg 78%
    07:00 +22°C° 0 mm 3 mps 751 mmHg 73%
    08:00 +24°C° 0 mm 3 mps 752 mmHg 67%
    09:00 +26°C° 0 mm 4 mps 752 mmHg 57%
    10:00 +29°C° 0 mm 4 mps 751 mmHg 47%
    11:00 +32°C° 0 mm 4 mps 751 mmHg 37%
    12:00 +33°C° 0 mm 4 mps 750 mmHg 33%
    13:00 +34°C° 0 mm 4 mps 749 mmHg 28%
    14:00 +35°C° 0 mm 5 mps 748 mmHg 24%
    15:00 +34°C° 0 mm 4 mps 748 mmHg 26%
    16:00 +33°C° 0 mm 4 mps 748 mmHg 28%
    17:00 +31°C° 0 mm 3 mps 748 mmHg 30%
    18:00 +29°C° 0 mm 3 mps 748 mmHg 33%
    19:00 +26°C° 0 mm 3 mps 749 mmHg 35%
    20:00 +24°C° 0 mm 2 mps 750 mmHg 38%
    21:00 +24°C° 0 mm 2 mps 750 mmHg 39%
    22:00 +23°C° 0 mm 2 mps 750 mmHg 40%
    23:00 +23°C° 0 mm 2 mps 751 mmHg 41%

    Day after tomorrow, 21 January, Monday

    Time Temperature Precipitation Wind Pressure Humidity
    00:00 +21°C° 0 mm 2 mps 750 mmHg 46%
    01:00 +21°C° 0 mm 2 mps 750 mmHg 51%
    02:00 +21°C° 0 mm 2 mps 750 mmHg 56%
    03:00 +20°C° 0 mm 2 mps 750 mmHg 61%
    04:00 +20°C° 0 mm 2 mps 750 mmHg 67%
    05:00 +20°C° 0 mm 3 mps 750 mmHg 73%
    06:00 +21°C° 0 mm 3 mps 750 mmHg 70%
    07:00 +22°C° 0 mm 3 mps 751 mmHg 67%
    08:00 +23°C° 0 mm 4 mps 751 mmHg 64%
    09:00 +26°C° 0 mm 4 mps 751 mmHg 56%
    10:00 +29°C° 0 mm 4 mps 751 mmHg 48%
    11:00 +32°C° 0 mm 4 mps 751 mmHg 39%
    12:00 +33°C° 0 mm 4 mps 750 mmHg 35%
    13:00 +34°C° 0 mm 4 mps 749 mmHg 30%
    14:00 +35°C° 0 mm 4 mps 748 mmHg 26%
    15:00 +34°C° 0 mm 3 mps 747 mmHg 27%
    16:00 +33°C° 0 mm 3 mps 747 mmHg 29%
    17:00 +31°C° 0 mm 3 mps 747 mmHg 31%
    18:00 +29°C° 0 mm 2 mps 748 mmHg 34%
    19:00 +26°C° 0 mm 2 mps 749 mmHg 37%
    20:00 +24°C° 0 mm 1 mps 750 mmHg 40%
    21:00 +23°C° 0 mm 1 mps 750 mmHg 43%
    22:00 +23°C° 0 mm 1 mps 750 mmHg 47%
    23:00 +22°C° 0 mm 1 mps 750 mmHg 51%

    22 January, Tuesday

    Time Temperature Precipitation Wind Pressure Humidity
    00:00 +22°C° 0 mm 1 mps 749 mmHg 54%
    01:00 +21°C° 0 mm 1 mps 749 mmHg 57%
    02:00 +21°C° 0 mm 1 mps 749 mmHg 60%
    03:00 +21°C° 0 mm 1 mps 749 mmHg 66%
    04:00 +20°C° 0 mm 1 mps 749 mmHg 71%
    05:00 +20°C° 0 mm 1 mps 749 mmHg 76%
    06:00 +20°C° 0 mm 2 mps 749 mmHg 73%
    07:00 +23°C° 0 mm 2 mps 750 mmHg 69%
    08:00 +24°C° 0 mm 2 mps 751 mmHg 66%
    09:00 +27°C° 0 mm 2 mps 751 mmHg 57%
    10:00 +29°C° 0 mm 2 mps 751 mmHg 47%
    11:00 +31°C° 0 mm 3 mps 751 mmHg 38%
    12:00 +32°C° 0 mm 2 mps 750 mmHg 35%
    13:00 +34°C° 0 mm 2 mps 749 mmHg 32%
    14:00 +35°C° 0 mm 2 mps 748 mmHg 29%
    15:00 +34°C° 0 mm 2 mps 748 mmHg 32%
    16:00 +34°C° 0 mm 2 mps 748 mmHg 34%
    17:00 +32°C° 0 mm 1 mps 748 mmHg 36%
    18:00 +29°C° 0 mm 1 mps 748 mmHg 43%
    19:00 +27°C° 0 mm 1 mps 749 mmHg 49%
    20:00 +24°C° 0 mm 1 mps 750 mmHg 56%
    21:00 +24°C° 0 mm 1 mps 750 mmHg 58%
    22:00 +21°C° 0 mm 0 mps 750 mmHg 60%
    23:00 +20°C° 0 mm 0 mps 750 mmHg 63%

    23 January, Wednesday

    Time Temperature Precipitation Wind Pressure Humidity
    00:00 +22°C° 0 mm 1 mps 750 mmHg 62%
    01:00 +22°C° 0 mm 1 mps 749 mmHg 60%
    02:00 +22°C° 0 mm 1 mps 749 mmHg 59%
    03:00 +22°C° 0 mm 1 mps 749 mmHg 61%
    04:00 +21°C° 0 mm 1 mps 749 mmHg 63%
    05:00 +20°C° 0 mm 2 mps 749 mmHg 65%
    06:00 +21°C° 0 mm 2 mps 749 mmHg 67%
    07:00 +24°C° 0 mm 2 mps 750 mmHg 69%
    08:00 +25°C° 0 mm 3 mps 751 mmHg 71%
    09:00 +27°C° 0 mm 3 mps 751 mmHg 62%
    10:00 +29°C° 0 mm 3 mps 750 mmHg 54%
    11:00 +33°C° 0 mm 3 mps 750 mmHg 45%
    12:00 +34°C° 0 mm 3 mps 749 mmHg 40%
    13:00 +35°C° 0 mm 3 mps 748 mmHg 35%
    14:00 +36°C° 0 mm 3 mps 747 mmHg 31%
    15:00 +35°C° 0 mm 3 mps 747 mmHg 32%
    16:00 +34°C° 0 mm 2 mps 747 mmHg 34%
    17:00 +34°C° 0 mm 2 mps 747 mmHg 36%
    18:00 +30°C° 0 mm 2 mps 748 mmHg 43%
    19:00 +28°C° 0 mm 1 mps 749 mmHg 51%
    20:00 +25°C° 0 mm 1 mps 749 mmHg 58%
    21:00 +24°C° 0 mm 1 mps 750 mmHg 61%
    22:00 +22°C° 0 mm 0 mps 750 mmHg 64%
    23:00 +21°C° 0 mm 0 mps 750 mmHg 67%

    24 January, Thursday

    Time Temperature Precipitation Wind Pressure Humidity
    00:00 +23°C° 0 mm 1 mps 750 mmHg 67%
    01:00 +23°C° 0 mm 1 mps 749 mmHg 67%
    02:00 +23°C° 0 mm 1 mps 749 mmHg 67%
    03:00 +22°C° 0 mm 1 mps 749 mmHg 72%
    04:00 +22°C° 0 mm 1 mps 749 mmHg 77%
    05:00 +21°C° 0 mm 2 mps 749 mmHg 82%
    06:00 +23°C° 0 mm 2 mps 750 mmHg 79%
    07:00 +24°C° 0 mm 2 mps 750 mmHg 76%
    08:00 +26°C° 0 mm 3 mps 751 mmHg 73%
    09:00 +28°C° 0 mm 3 mps 751 mmHg 64%
    10:00 +30°C° 0 mm 3 mps 751 mmHg 54%
    11:00 +33°C° 0 mm 4 mps 750 mmHg 44%
    12:00 +34°C° 0 mm 4 mps 749 mmHg 41%
    13:00 +35°C° 0 mm 4 mps 748 mmHg 38%
    14:00 +36°C° 0 mm 4 mps 747 mmHg 35%
    15:00 +35°C° 0 mm 3 mps 747 mmHg 36%
    16:00 +35°C° 0 mm 3 mps 747 mmHg 38%
    17:00 +34°C° 0 mm 3 mps 747 mmHg 39%
    18:00 +31°C° 0 mm 2 mps 748 mmHg 46%
    19:00 +28°C° 0 mm 2 mps 749 mmHg 53%
    20:00 +26°C° 0 mm 1 mps 749 mmHg 60%
    21:00 +25°C° 0 mm 1 mps 749 mmHg 63%
    22:00 +25°C° 0 mm 1 mps 749 mmHg 67%
    23:00 +24°C° 0 mm 1 mps 750 mmHg 70%
    Show more